CALIPSO

Satellite information

Favourite Embed

Satellite Type and Status

PAYLOADIN ORBIT

Key statistics

Satellite CALIPSO at a glance.

Uptime

6954

Days in orbit

Revolutions

≈ 14.7

Per day

Orbit

SSO

Sun Synchronous Orbit

Inclination

98.4

Latest

Satellite identification and parameters

Extended collection of information and parameters for CALIPSO.

Object identification

Identified? True

Debris? False

Object name: CALIPSO

International designator: 2006-016B

Object number (NORAD): 29108

Object ID (CCSDS): 29108

Country: FRANCE (FR)

Current information (Y/N): Y

RCS size: LARGE

Orbital parameters

Period: 98.082 minutes

Inclination: 98.4469 deg

SMA: 7045.078 km

Apoapsis: 668.3 km

Periapsis: 665.586 km

RAAN: 129.2278 deg

Eccentricy: 0.0001926

Argument of periapsis: 90.8659 deg

Mean anomaly: 269.2765 deg

Mean motion: 14.68162279 rev/day

Mean motion (dot): 0.00001366 rev/day2

B* drag term: 0.00024649 1/REarth

Two-line elements (TLE)

Creation date: May 12, 2025, 2:31 a.m.

Reference frame: TEME

Reference center: EARTH

Epoch: May 11, 2025, 11:21 p.m. UTC

TLE line 0: 0 CALIPSO

TLE line 1: 1 29108U 06016B 25131.97315819 .00001366 00000-0 24649-3 0 9992

TLE line 2: 2 29108 98.4469 129.2278 0001926 90.8659 269.2765 14.68162279 14163

Live tracking on map

Real-time ground track for satellite CALIPSO.

In-orbit conjunctions

There are no conjunctions computed for CALIPSO, at the moment. Check back to stay up to date, as we update our databases every day.

Go to all conjunctions

Associated space launch

CloudSat is a satellite which uses millimeter-wavelength radar to measure the altitude and properties of clouds. Advanced cloud-profiling radar gathers information on the vertical structure of highly dynamic cloud systems. This new information provides the first global measurements of cloud properties that will help scientists compile a database of cloud measurements to improve how clouds are represented in global climate and numerical weather prediction models.

CALIPSO was lifted into orbit during the mission ‘Delta 7420-10C | Cloudsat’, on board a Delta 7420-10C space rocket.

The launch took place on April 28, 2006, 10:02 a.m. from Space Launch Complex 2W.

For more information about the launch, click the button.

Launch to space Delta 7420-10C | Cloudsat
Delta 7420-10C | Cloudsat

Agency: N/A

Status: Launch Successful

Launch date: April 28, 2006, 10:02 a.m. UTC

Rocket: Delta 7420-10C

Launch pad: Space Launch Complex 2W

Location: Vandenberg SFB, CA, USA

...

Latest news about this satellite

There are no fresh news available about this satellite. Check back as we update our databases every day.


Newsletter sign-up

Weekly statistics, charts and insights to help you stay on top of the space industry.